When you browse on this site, cookies collect data to enhance your experience and personalize the content and advertising you see.
Visit our Privacy Policy to learn more. By continuing to use the site, you agree to this use of cookies and data.
  • en France
  • Liste des pays
  • À 7 jours
  • Température de l'eau
  • Carte météo
  • Widgets météo
  • user-avatar
    Se connecter

    Météo par heure à Xiangcheng

    Ce jour, 15 Septembre, Dimanche

    Heure Température Précipitation Vent Pression Humidité
    00:00 +21°C° 0 mm 3 m/s 754 mmHg 60%
    01:00 +21°C° 0 mm 3 m/s 754 mmHg 60%
    02:00 +23°C° 0 mm 2 m/s 754 mmHg 57%
    03:00 +21°C° 0 mm 3 m/s 754 mmHg 58%
    04:00 +21°C° 0 mm 3 m/s 754 mmHg 59%
    05:00 +21°C° 0 mm 3 m/s 753 mmHg 60%
    06:00 +20°C° 0 mm 3 m/s 754 mmHg 65%
    07:00 +20°C° 0 mm 4 m/s 754 mmHg 69%
    08:00 +19°C° 0 mm 5 m/s 755 mmHg 74%
    09:00 +19°C° 0.5 mm 5 m/s 755 mmHg 78%
    10:00 +19°C° 0.5 mm 4 m/s 755 mmHg 82%
    11:00 +18°C° 0.5 mm 4 m/s 755 mmHg 86%
    12:00 +18°C° 0.2 mm 3 m/s 755 mmHg 86%
    13:00 +19°C° 0.2 mm 3 m/s 754 mmHg 86%
    14:00 +19°C° 0.2 mm 2 m/s 754 mmHg 86%
    15:00 +19°C° 0.2 mm 2 m/s 754 mmHg 86%
    16:00 +19°C° 0.2 mm 2 m/s 753 mmHg 87%
    17:00 +19°C° 0.2 mm 2 m/s 753 mmHg 87%
    18:00 +19°C° 0.6 mm 2 m/s 754 mmHg 89%
    19:00 +18°C° 0.6 mm 2 m/s 754 mmHg 91%
    20:00 +19°C° 0.6 mm 1 m/s 754 mmHg 94%
    21:00 +19°C° 0.2 mm 1 m/s 754 mmHg 93%
    22:00 +19°C° 0.2 mm 1 m/s 754 mmHg 93%
    23:00 +19°C° 0.2 mm 1 m/s 754 mmHg 92%

    Demain, 16 Septembre, Lundi

    Heure Température Précipitation Vent Pression Humidité
    00:00 +19°C° 0.1 mm 1 m/s 754 mmHg 92%
    01:00 +19°C° 0.1 mm 1 m/s 754 mmHg 92%
    02:00 +19°C° 0.1 mm 1 m/s 754 mmHg 92%
    03:00 +19°C° 0 mm 1 m/s 754 mmHg 93%
    04:00 +19°C° 0 mm 1 m/s 753 mmHg 93%
    05:00 +18°C° 0 mm 1 m/s 753 mmHg 94%
    06:00 +19°C° 0 mm 1 m/s 754 mmHg 90%
    07:00 +20°C° 0 mm 1 m/s 754 mmHg 86%
    08:00 +21°C° 0 mm 1 m/s 754 mmHg 82%
    09:00 +23°C° 0 mm 1 m/s 754 mmHg 75%
    10:00 +24°C° 0 mm 1 m/s 755 mmHg 68%
    11:00 +26°C° 0 mm 1 m/s 755 mmHg 61%
    12:00 +26°C° 0 mm 2 m/s 754 mmHg 60%
    13:00 +27°C° 0 mm 3 m/s 754 mmHg 60%
    14:00 +27°C° 0 mm 3 m/s 753 mmHg 59%
    15:00 +26°C° 0 mm 3 m/s 753 mmHg 61%
    16:00 +26°C° 0 mm 3 m/s 753 mmHg 62%
    17:00 +25°C° 0 mm 3 m/s 753 mmHg 64%
    18:00 +24°C° 0 mm 2 m/s 753 mmHg 66%
    19:00 +23°C° 0 mm 2 m/s 753 mmHg 67%
    20:00 +23°C° 0 mm 1 m/s 753 mmHg 69%
    21:00 +22°C° 0 mm 1 m/s 754 mmHg 68%
    22:00 +22°C° 0 mm 1 m/s 754 mmHg 68%
    23:00 +22°C° 0 mm 1 m/s 754 mmHg 68%

    Après-demain, 17 Septembre, Mardi

    Heure Température Précipitation Vent Pression Humidité
    00:00 +21°C° 0.6 mm 1 m/s 754 mmHg 74%
    01:00 +19°C° 0.6 mm 2 m/s 754 mmHg 80%
    02:00 +19°C° 0.6 mm 2 m/s 754 mmHg 86%
    03:00 +19°C° 0.7 mm 3 m/s 754 mmHg 86%
    04:00 +18°C° 0.7 mm 3 m/s 754 mmHg 87%
    05:00 +18°C° 0.7 mm 4 m/s 754 mmHg 88%
    06:00 +18°C° 0.2 mm 4 m/s 755 mmHg 88%
    07:00 +19°C° 0.2 mm 4 m/s 755 mmHg 88%
    08:00 +19°C° 0.2 mm 4 m/s 756 mmHg 87%
    09:00 +19°C° 0.3 mm 4 m/s 756 mmHg 88%
    10:00 +19°C° 0.3 mm 4 m/s 756 mmHg 89%
    11:00 +19°C° 0.3 mm 4 m/s 757 mmHg 90%
    12:00 +19°C° 0.5 mm 3 m/s 757 mmHg 90%
    13:00 +19°C° 0.5 mm 3 m/s 756 mmHg 90%
    14:00 +20°C° 0.5 mm 2 m/s 756 mmHg 90%
    15:00 +19°C° 0.5 mm 2 m/s 756 mmHg 91%
    16:00 +19°C° 0.5 mm 2 m/s 756 mmHg 92%
    17:00 +19°C° 0.5 mm 2 m/s 756 mmHg 93%
    18:00 +20°C° 0.2 mm 1 m/s 757 mmHg 92%
    19:00 +20°C° 0.2 mm 1 m/s 757 mmHg 92%
    20:00 +20°C° 0.2 mm 1 m/s 757 mmHg 91%
    21:00 +20°C° 0 mm 1 m/s 757 mmHg 92%
    22:00 +19°C° 0 mm 1 m/s 757 mmHg 92%
    23:00 +19°C° 0 mm 1 m/s 757 mmHg 92%

    18 Septembre, Mercredi

    Heure Température Précipitation Vent Pression Humidité
    00:00 +19°C° 0 mm 1 m/s 757 mmHg 91%
    01:00 +19°C° 0 mm 1 m/s 757 mmHg 91%
    02:00 +19°C° 0 mm 1 m/s 757 mmHg 90%
    03:00 +19°C° 0 mm 1 m/s 757 mmHg 90%
    04:00 +19°C° 0 mm 1 m/s 757 mmHg 90%
    05:00 +19°C° 0 mm 1 m/s 757 mmHg 89%
    06:00 +19°C° 0 mm 1 m/s 758 mmHg 85%
    07:00 +20°C° 0 mm 1 m/s 759 mmHg 81%
    08:00 +21°C° 0 mm 1 m/s 759 mmHg 77%
    09:00 +22°C° 0 mm 1 m/s 759 mmHg 75%
    10:00 +22°C° 0 mm 1 m/s 759 mmHg 73%
    11:00 +23°C° 0 mm 1 m/s 760 mmHg 70%
    12:00 +23°C° 0 mm 1 m/s 759 mmHg 71%
    13:00 +23°C° 0 mm 1 m/s 759 mmHg 71%
    14:00 +23°C° 0 mm 1 m/s 758 mmHg 71%
    15:00 +23°C° 0 mm 1 m/s 758 mmHg 72%
    16:00 +23°C° 0 mm 1 m/s 758 mmHg 74%
    17:00 +22°C° 0 mm 1 m/s 758 mmHg 75%
    18:00 +21°C° 0 mm 2 m/s 758 mmHg 74%
    19:00 +21°C° 0 mm 2 m/s 758 mmHg 72%
    20:00 +21°C° 0 mm 2 m/s 758 mmHg 70%
    21:00 +21°C° 0 mm 2 m/s 758 mmHg 66%
    22:00 +22°C° 0 mm 1 m/s 758 mmHg 62%
    23:00 +22°C° 0 mm 1 m/s 758 mmHg 58%

    19 Septembre, Jeudi

    Heure Température Précipitation Vent Pression Humidité
    00:00 +22°C° 0 mm 1 m/s 758 mmHg 58%
    01:00 +22°C° 0 mm 1 m/s 757 mmHg 57%
    02:00 +22°C° 0 mm 1 m/s 757 mmHg 56%
    03:00 +22°C° 0 mm 1 m/s 757 mmHg 58%
    04:00 +22°C° 0 mm 1 m/s 757 mmHg 60%
    05:00 +21°C° 0 mm 1 m/s 757 mmHg 62%
    06:00 +21°C° 0 mm 1 m/s 757 mmHg 64%
    07:00 +21°C° 0 mm 1 m/s 757 mmHg 66%
    08:00 +21°C° 0 mm 1 m/s 758 mmHg 68%
    09:00 +20°C° 0 mm 2 m/s 758 mmHg 70%
    10:00 +21°C° 0 mm 2 m/s 758 mmHg 72%
    11:00 +21°C° 0 mm 2 m/s 757 mmHg 74%
    12:00 +21°C° 0 mm 2 m/s 757 mmHg 72%
    13:00 +21°C° 0 mm 2 m/s 757 mmHg 70%
    14:00 +21°C° 0 mm 2 m/s 756 mmHg 68%
    15:00 +21°C° 0 mm 3 m/s 756 mmHg 70%
    16:00 +20°C° 0 mm 3 m/s 756 mmHg 72%
    17:00 +20°C° 0 mm 3 m/s 756 mmHg 74%
    18:00 +19°C° 0 mm 2 m/s 756 mmHg 72%
    19:00 +19°C° 0 mm 2 m/s 757 mmHg 70%
    20:00 +20°C° 0 mm 1 m/s 757 mmHg 68%
    21:00 +20°C° 0 mm 1 m/s 757 mmHg 68%
    22:00 +20°C° 0 mm 1 m/s 757 mmHg 68%
    23:00 +20°C° 0 mm 1 m/s 757 mmHg 69%

    20 Septembre, Vendredi

    Heure Température Précipitation Vent Pression Humidité
    00:00 +19°C° 0 mm 1 m/s 756 mmHg 69%
    01:00 +19°C° 0 mm 1 m/s 756 mmHg 69%
    02:00 +19°C° 0 mm 1 m/s 756 mmHg 70%
    03:00 +19°C° 0 mm 1 m/s 756 mmHg 70%
    04:00 +19°C° 0 mm 1 m/s 755 mmHg 70%
    05:00 +19°C° 0 mm 1 m/s 755 mmHg 71%
    06:00 +19°C° 0 mm 1 m/s 755 mmHg 70%
    07:00 +20°C° 0 mm 1 m/s 756 mmHg 69%
    08:00 +20°C° 0 mm 1 m/s 756 mmHg 68%
    09:00 +20°C° 0 mm 1 m/s 756 mmHg 66%
    10:00 +21°C° 0 mm 1 m/s 756 mmHg 64%
    11:00 +21°C° 0 mm 1 m/s 756 mmHg 63%
    12:00 +22°C° 0 mm 1 m/s 755 mmHg 60%
    13:00 +23°C° 0 mm 1 m/s 755 mmHg 57%
    14:00 +24°C° 0 mm 1 m/s 754 mmHg 54%
    15:00 +24°C° 0 mm 1 m/s 754 mmHg 54%
    16:00 +25°C° 0 mm 1 m/s 754 mmHg 53%
    17:00 +25°C° 0 mm 1 m/s 754 mmHg 53%
    18:00 +24°C° 0 mm 1 m/s 754 mmHg 56%
    19:00 +23°C° 0 mm 1 m/s 755 mmHg 59%
    20:00 +21°C° 0 mm 1 m/s 755 mmHg 62%
    21:00 +21°C° 0 mm 1 m/s 755 mmHg 63%
    22:00 +20°C° 0 mm 1 m/s 755 mmHg 65%
    23:00 +20°C° 0 mm 1 m/s 756 mmHg 66%
    Voir plus